Regional Weather Roundup
Issued by NWS

Home | Current Version | Previous Version | Graphics & Text | Print | Product List | Glossary On
Versions: 1 2 3 4 5 6 7 8 9 10 11 12 13 14 15 16 17 18 19 20 21 22 23 24 25 26 27 28 29 30 31 32 33 34 35 36 37 38 39 40 41 42 43 44 45 46 47 48 49 50
000
ASUS43 KBIS 220459
RWRND

NORTH DAKOTA REGIONAL WEATHER ROUNDUP
NATIONAL WEATHER SERVICE BISMARCK ND
1200 AM CDT MON SEP 22 2014

NOTE: "FAIR" INDICATES FEW OR NO CLOUDS BELOW 12,000 FEET WITH NO
SIGNIFICANT WEATHER AND/OR OBSTRUCTIONS TO VISIBILITY.


NDZ001>003-009>011-017-220600-
NORTHWEST NORTH DAKOTA

CITY           SKY/WX    TMP DP  RH WIND       PRES   REMARKS
WILLISTON      CLEAR     44  37  76 CALM      30.15F
MINOT          CLEAR     53  40  61 SW9       30.16F
MINOT AFB      CLEAR     52  41  66 SW8       30.15F
$$

NDZ018>021-031>035-040>046-220600-
SOUTHWEST NORTH DAKOTA

CITY           SKY/WX    TMP DP  RH WIND       PRES   REMARKS
BISMARCK       CLEAR     49  43  80 E3        30.21S
GARRISON         N/A     48  44  86 CALM      30.18F
HETTINGER ARPT CLEAR     51  38  60 SE6       30.22F
$$

NDZ004>008-012>016-024-026-027-054-220600-
NORTHEAST NORTH DAKOTA

CITY           SKY/WX    TMP DP  RH WIND       PRES   REMARKS
GRAND FORKS    CLEAR     50  48  93 S8        30.17F
GRND FRKS AFB  CLEAR     52  51  99 SW7       30.18S
DEVILS LAKE    CLEAR     50  45  81 S5        30.16F
$$

NDZ022-023-025-028>030-036>039-047>053-220600-
SOUTHEAST NORTH DAKOTA

CITY           SKY/WX    TMP DP  RH WIND       PRES   REMARKS
FARGO          CLEAR     53  48  83 S7        30.21S
$$



USA.gov is the U.S. government's official web portal to all federal, state and local government web resources and services.